Location: Spring Mountain Observatory
(40.2501°N, 75.4333°W)
Time: 00:16:41
(UTC-04:00)

Envisat - Visible Passes

Search period start: 27 April 2018 00:00
Search period end: 07 May 2018 00:00
Orbit: 764 x 766 km, 98.2° (Epoch: 26 April)

Date Brightness Start Highest point End Pass type
(mag) Time Alt. Az. Time Alt. Az. Time Alt. Az.
27 Apr 5.2 21:23:58 10° SSW 21:28:01 24° W 21:32:07 10° NW visible
28 Apr 3.8 20:46:10 10° S 20:51:07 54° W 20:56:06 10° NNW visible
29 Apr 5.7 21:51:28 10° WSW 21:53:52 13° W 21:56:17 10° WNW visible
30 Apr 4.8 21:12:22 10° SSW 21:16:48 30° W 21:21:16 10° NW visible
01 May 3.4 20:34:54 10° S 20:39:56 69° WSW 20:45:01 10° NNW visible
02 May 5.6 21:39:19 10° SW 21:42:36 17° W 21:45:53 10° NW visible
03 May 4.4 21:00:54 10° SSW 21:05:35 38° W 21:10:20 10° NNW visible
04 May 3.1 20:23:42 10° SSE 20:28:47 87° WSW 20:33:54 10° NNW visible
05 May 5.3 21:27:29 10° SW 21:31:20 22° W 21:35:14 10° NW visible
06 May 4.0 20:49:30 10° S 20:54:24 49° W 20:59:20 10° NNW visible
